Torna al catalogo

FENGYUN 1C DEB

LostPO
NORAD 47019·DEBRIS·🇨🇳 China

Lanciato May 10, 1999 da Taiyuan Satellite Launch Center

Loading…

Prossimi Passaggi (prossime 24 ore)

TLE

ObsoletoSource: Space-Track

Epoca: Aug 6, 2022, 03:34 UTC

1 47019U 99025FAV 22218.14913461  .00000679  00000-0  75502-3 0  9994
2 47019  98.4235 187.3750 0285491  64.8280 356.6865 13.58066052498086

Traccia FENGYUN 1C DEB in tempo reale con AllMySat

Download on the App Store